Location: Newark
(50.4348°N, 30.5552°E)
Time: 08:29:02
(UTC+00:00)

Vanguard 2 Rocket - All Passes

Search period start: 18 January 2020 00:00
Search period end: 28 January 2020 00:00
Orbit: 554 x 3326 km, 32.9° (Epoch: 17 January)

Date Brightness Start Highest point End Pass type
(mag) Time Alt. Az. Time Alt. Az. Time Alt. Az.
18 Jan - 05:47:09 10° SSW 05:53:12 25° SSE 06:02:10 10° ESE daylight
18 Jan - 07:58:01 10° WSW 08:06:16 31° S 08:18:49 10° SE daylight
18 Jan - 10:11:21 10° WSW 10:20:27 23° SSW 10:32:32 10° SSE daylight
19 Jan - 04:49:22 10° SSW 04:53:55 18° SSE 05:00:07 10° ESE visible
19 Jan - 06:59:15 10° SW 07:06:19 29° S 07:17:10 10° SE daylight
19 Jan - 09:11:33 10° WSW 09:20:03 25° SSW 09:32:04 10° SSE daylight
19 Jan - 11:28:58 10° SW 11:34:17 13° SW 11:40:16 10° SSW daylight
20 Jan - 03:52:47 10° SSE 03:54:55 12° SE 03:57:23 10° SE visible
20 Jan - 06:00:47 10° SW 06:06:41 25° SSE 06:15:30 10° ESE daylight
20 Jan - 08:12:14 10° WSW 08:19:52 26° S 08:31:06 10° SE daylight
20 Jan - 10:26:59 10° WSW 10:33:54 16° SSW 10:42:26 10° S daylight
21 Jan - 05:02:42 10° SSW 05:07:20 20° SSE 05:13:50 10° ESE visible
21 Jan - 07:13:18 10° SW 07:19:56 26° S 07:29:51 10° SE daylight
21 Jan - 09:26:32 10° WSW 09:33:38 19° SSW 09:42:58 10° SSE daylight
22 Jan - 04:05:13 10° S 04:08:15 14° SSE 04:12:01 10° SE visible
22 Jan - 06:14:41 10° SW 06:20:17 24° S 06:28:31 10° SE daylight
22 Jan - 08:26:52 10° WSW 08:33:31 20° SSW 08:42:43 10° SSE daylight
23 Jan - 05:16:23 10° SW 05:20:54 20° SSE 05:27:13 10° SE daylight
23 Jan - 07:27:42 10° SW 07:33:38 21° S 07:42:02 10° SSE daylight
23 Jan - 09:43:14 10° SW 09:47:14 12° SSW 09:51:51 10° S daylight
24 Jan - 04:18:28 10° SSW 04:21:45 15° SSE 04:25:54 10° SE visible
24 Jan - 06:28:53 10° SW 06:33:59 20° S 06:41:09 10° SE daylight
24 Jan - 08:42:27 10° SW 08:47:13 14° SSW 08:53:07 10° S daylight
25 Jan - 03:21:52 10° SSE 03:22:46 10° SSE 03:23:43 10° SSE visible
25 Jan - 05:30:23 10° SW 05:34:34 18° S 05:40:14 10° SE daylight
25 Jan - 07:42:44 10° SW 07:47:22 16° SSW 07:53:21 10° SSE daylight
26 Jan - 04:32:13 10° SSW 04:35:22 15° S 04:39:19 10° SE visible
26 Jan - 06:43:35 10° SW 06:47:44 16° S 06:53:08 10° SSE daylight
27 Jan - 03:34:40 10° S 03:36:19 11° SSE 03:38:09 10° SE visible
27 Jan - 05:44:51 10° SW 05:48:19 15° S 05:52:44 10° SSE daylight
